STARLINK-34750

Satellite information

Favourite Embed

Satellite Type and Status

PAYLOADIN ORBIT

Key statistics

Satellite STARLINK-34750 at a glance.

Uptime

30

Days in orbit

Revolutions

≈ 15.4

Per day

Orbit

SSO

Sun Synchronous Orbit

Inclination

97.6

Latest

Satellite identification and parameters

Extended collection of information and parameters for STARLINK-34750.

Object identification

Identified? True

Debris? False

Object name: STARLINK-34750

International designator: 2025-165F

Object number (NORAD): 65061

Object ID (CCSDS): 65061

Country: UNITED STATES OF AMERICA (US)

Current information (Y/N): Y

RCS size: LARGE

Orbital parameters

Period: 93.546 minutes

Inclination: 97.6035 deg

SMA: 6826.159 km

Apoapsis: 448.733 km

Periapsis: 447.314 km

RAAN: 315.073 deg

Eccentricy: 0.00010395

Argument of periapsis: 95.469 deg

Mean anomaly: 264.6674 deg

Mean motion: 15.39352884 rev/day

Mean motion (dot): 0.00051904 rev/day2

B* drag term: 0.0013236335 1/REarth

Two-line elements (TLE)

Creation date: Aug. 30, 2025, 3:38 a.m.

Reference frame: TEME

Reference center: EARTH

Epoch: Aug. 29, 2025, 10:30 p.m. UTC

TLE line 0: 0 STARLINK-34750

TLE line 1: 1 65061U 25165F 25241.93778216 .00051904 00000-0 13236-2 0 9990

TLE line 2: 2 65061 97.6035 315.0730 0001040 95.4690 264.6674 15.39352884 5735

Live tracking on map

Real-time ground track for satellite STARLINK-34750.

In-orbit conjunctions

There are no conjunctions computed for STARLINK-34750, at the moment. Check back to stay up to date, as we update our databases every day.

Go to all conjunctions

Associated space launch

A batch of 19 satellites for the Starlink mega-constellation - SpaceX's project for space-based Internet communication system.

STARLINK-34750 was lifted into orbit during the mission ‘Falcon 9 Block 5 | Starlink Group 13-4’, on board a Falcon 9 space rocket.

The launch took place on July 31, 2025, 6:35 p.m. from Space Launch Complex 4E.

For more information about the launch, click the button.

Launch to space Falcon 9 Block 5 | Starlink Group 13-4
Falcon 9 Block 5 | Starlink Group 13-4

Agency: SpaceX

Status: Launch Successful

Launch date: July 31, 2025, 6:35 p.m. UTC

Rocket: Falcon 9

Launch pad: Space Launch Complex 4E

Location: Vandenberg SFB, CA, USA

...

Latest news about this satellite

News about space launch
SpaceX launches West Coast Falcon 9 rocket on Starlink 13-4 mission

Some classified satellites might have hitched a ride with 19 Starlink satellites launched by SpaceX from the company’s West Coast launch site on Thursday.

News about space launch
Launch Roundup: SpaceX to launch Crew-11 to ISS; ISRO and NASA launch new SAR satellite

With 10 launches scheduled from around the world, this week’s launch manifest is among the… The post Launch Roundup: SpaceX to launch Crew-11 to ISS; ISRO and NASA launch new SAR satellite appeared first on NASASpaceFlight.com.


Newsletter sign-up

Weekly statistics, charts and insights to help you stay on top of the space industry.